• In Hungary
  • List of Countries
  • For 7 days
  • Water Temperature
  • Satellite Maps
  • Weather Map
  • News
  • Weather Widgets
  • user-avatar
    Login

    Hourly Weather Lebedevo

    Today, 14 November, Wednesday

    Time Temperature Precipitation Wind Pressure Humidity
    00:00 -9°C° 0 mm 4 mps 766 mmHg 29%
    01:00 -9°C° 0 mm 4 mps 766 mmHg 30%
    02:00 -9°C° 0 mm 4 mps 765 mmHg 31%
    03:00 -9°C° 0 mm 4 mps 765 mmHg 37%
    04:00 -9°C° 0 mm 4 mps 765 mmHg 38%
    05:00 -9°C° 0 mm 4 mps 765 mmHg 39%
    06:00 -9°C° 0 mm 4 mps 764 mmHg 40%
    07:00 -9°C° 0 mm 4 mps 764 mmHg 40%
    08:00 -9°C° 0 mm 4 mps 763 mmHg 40%
    09:00 -10°C° 0 mm 5 mps 763 mmHg 40%
    10:00 -8°C° 0 mm 5 mps 763 mmHg 38%
    11:00 -7°C° 0 mm 5 mps 763 mmHg 36%
    12:00 -5°C° 0 mm 5 mps 763 mmHg 35%
    13:00 -5°C° 0 mm 5 mps 762 mmHg 35%
    14:00 -5°C° 0 mm 5 mps 762 mmHg 36%
    15:00 -3°C° 0 mm 4 mps 761 mmHg 36%
    16:00 -4°C° 0 mm 4 mps 761 mmHg 40%
    17:00 -4°C° 0 mm 4 mps 761 mmHg 44%
    18:00 -5°C° 0 mm 4 mps 761 mmHg 47%
    19:00 -5°C° 0 mm 4 mps 761 mmHg 50%
    20:00 -5°C° 0 mm 4 mps 761 mmHg 52%
    21:00 -5°C° 0 mm 4 mps 761 mmHg 55%
    22:00 -5°C° 0 mm 4 mps 761 mmHg 56%
    23:00 -5°C° 0 mm 4 mps 761 mmHg 57%

    Tomorrow, 15 November, Thursday

    Time Temperature Precipitation Wind Pressure Humidity
    00:00 -6°C° 0 mm 3 mps 761 mmHg 58%
    01:00 -6°C° 0 mm 3 mps 761 mmHg 56%
    02:00 -6°C° 0 mm 3 mps 762 mmHg 55%
    03:00 -6°C° 0 mm 3 mps 762 mmHg 53%
    04:00 -6°C° 0 mm 3 mps 762 mmHg 51%
    05:00 -6°C° 0 mm 3 mps 762 mmHg 48%
    06:00 -6°C° 0 mm 3 mps 762 mmHg 46%
    07:00 -6°C° 0 mm 3 mps 762 mmHg 44%
    08:00 -6°C° 0 mm 3 mps 763 mmHg 41%
    09:00 -6°C° 0 mm 3 mps 763 mmHg 39%
    10:00 -5°C° 0 mm 3 mps 763 mmHg 38%
    11:00 -4°C° 0 mm 3 mps 763 mmHg 36%
    12:00 -2°C° 0 mm 3 mps 764 mmHg 35%
    13:00 -2°C° 0 mm 3 mps 764 mmHg 35%
    14:00 -1°C° 0 mm 3 mps 764 mmHg 35%
    15:00 -1°C° 0 mm 3 mps 764 mmHg 35%
    16:00 -2°C° 0 mm 3 mps 764 mmHg 35%
    17:00 -4°C° 0 mm 3 mps 764 mmHg 35%
    18:00 -5°C° 0 mm 3 mps 764 mmHg 36%
    19:00 -5°C° 0 mm 3 mps 765 mmHg 34%
    20:00 -4°C° 0 mm 2 mps 765 mmHg 33%
    21:00 -4°C° 0 mm 2 mps 765 mmHg 31%
    22:00 -4°C° 0 mm 2 mps 766 mmHg 31%
    23:00 -5°C° 0 mm 2 mps 766 mmHg 31%

    Day after tomorrow, 16 November, Friday

    Time Temperature Precipitation Wind Pressure Humidity
    00:00 -5°C° 0 mm 2 mps 766 mmHg 31%
    01:00 -5°C° 0 mm 2 mps 766 mmHg 31%
    02:00 -5°C° 0 mm 2 mps 766 mmHg 31%
    03:00 -5°C° 0 mm 2 mps 767 mmHg 31%
    04:00 -5°C° 0 mm 2 mps 767 mmHg 31%
    05:00 -5°C° 0 mm 2 mps 767 mmHg 31%
    06:00 -6°C° 0 mm 2 mps 767 mmHg 31%
    07:00 -6°C° 0 mm 3 mps 767 mmHg 29%
    08:00 -6°C° 0 mm 3 mps 768 mmHg 28%
    09:00 -6°C° 0 mm 3 mps 768 mmHg 27%
    10:00 -5°C° 0 mm 3 mps 768 mmHg 25%
    11:00 -4°C° 0 mm 3 mps 768 mmHg 22%
    12:00 -1°C° 0 mm 3 mps 768 mmHg 20%
    13:00 -1°C° 0 mm 3 mps 768 mmHg 20%
    14:00 -1°C° 0 mm 3 mps 768 mmHg 21%
    15:00 -1°C° 0 mm 3 mps 768 mmHg 21%
    16:00 -2°C° 0 mm 3 mps 768 mmHg 22%
    17:00 -4°C° 0 mm 3 mps 768 mmHg 24%
    18:00 -5°C° 0 mm 3 mps 768 mmHg 25%
    19:00 -5°C° 0 mm 3 mps 768 mmHg 25%
    20:00 -4°C° 0 mm 2 mps 768 mmHg 24%
    21:00 -4°C° 0 mm 2 mps 768 mmHg 24%
    22:00 -4°C° 0 mm 2 mps 768 mmHg 24%
    23:00 -4°C° 0 mm 2 mps 768 mmHg 24%

    17 November, Saturday

    Time Temperature Precipitation Wind Pressure Humidity
    00:00 -4°C° 0 mm 2 mps 768 mmHg 24%
    01:00 -5°C° 0 mm 2 mps 768 mmHg 23%
    02:00 -5°C° 0 mm 2 mps 768 mmHg 23%
    03:00 -5°C° 0 mm 2 mps 767 mmHg 23%
    04:00 -5°C° 0 mm 2 mps 767 mmHg 23%
    05:00 -5°C° 0 mm 2 mps 767 mmHg 22%
    06:00 -5°C° 0 mm 2 mps 767 mmHg 22%
    07:00 -5°C° 0 mm 2 mps 767 mmHg 22%
    08:00 -3°C° 0 mm 1 mps 767 mmHg 21%
    09:00 -2°C° 0 mm 1 mps 766 mmHg 20%
    10:00 -1°C° 0 mm 1 mps 766 mmHg 18%
    11:00 0°C° 0 mm 1 mps 766 mmHg 17%
    12:00 +1°C° 0 mm 1 mps 765 mmHg 15%
    13:00 +1°C° 0 mm 1 mps 765 mmHg 16%
    14:00 +1°C° 0 mm 1 mps 764 mmHg 18%
    15:00 +1°C° 0 mm 1 mps 764 mmHg 19%
    16:00 0°C° 0 mm 1 mps 763 mmHg 19%
    17:00 0°C° 0 mm 1 mps 763 mmHg 20%
    18:00 -3°C° 0 mm 2 mps 762 mmHg 21%
    19:00 -3°C° 0 mm 2 mps 762 mmHg 21%
    20:00 -3°C° 0 mm 2 mps 761 mmHg 21%
    21:00 -3°C° 0 mm 2 mps 761 mmHg 21%
    22:00 -3°C° 0 mm 2 mps 760 mmHg 21%
    23:00 -4°C° 0 mm 3 mps 759 mmHg 21%

    18 November, Sunday

    Time Temperature Precipitation Wind Pressure Humidity
    00:00 -4°C° 0 mm 3 mps 758 mmHg 22%
    01:00 -4°C° 0 mm 3 mps 757 mmHg 22%
    02:00 -4°C° 0 mm 3 mps 757 mmHg 23%
    03:00 -4°C° 0 mm 4 mps 756 mmHg 23%
    04:00 -4°C° 0 mm 4 mps 755 mmHg 25%
    05:00 -4°C° 0 mm 4 mps 754 mmHg 27%
    06:00 -4°C° 0 mm 4 mps 754 mmHg 29%
    07:00 -4°C° 0.1 mm 4 mps 753 mmHg 37%
    08:00 -4°C° 0.1 mm 4 mps 752 mmHg 45%
    09:00 -4°C° 0.1 mm 4 mps 752 mmHg 53%
    10:00 -4°C° 0.3 mm 3 mps 751 mmHg 63%
    11:00 -4°C° 0.3 mm 3 mps 751 mmHg 72%
    12:00 -4°C° 0.3 mm 3 mps 750 mmHg 82%
    13:00 -4°C° 0.3 mm 3 mps 750 mmHg 85%
    14:00 -4°C° 0.3 mm 3 mps 750 mmHg 87%
    15:00 -3°C° 0.3 mm 2 mps 749 mmHg 90%
    16:00 -3°C° 0.3 mm 2 mps 749 mmHg 91%
    17:00 -3°C° 0.3 mm 2 mps 749 mmHg 93%
    18:00 -3°C° 0.3 mm 2 mps 749 mmHg 94%
    19:00 -1°C° 0.3 mm 1 mps 748 mmHg 95%
    20:00 -1°C° 0.3 mm 1 mps 748 mmHg 95%
    21:00 -1°C° 0.3 mm 1 mps 748 mmHg 96%
    22:00 -1°C° 0.3 mm 1 mps 748 mmHg 96%
    23:00 -1°C° 0.3 mm 1 mps 749 mmHg 96%

    19 November, Monday

    Time Temperature Precipitation Wind Pressure Humidity
    00:00 -1°C° 0.3 mm 1 mps 749 mmHg 96%
    01:00 -3°C° 0.2 mm 2 mps 749 mmHg 95%
    02:00 -3°C° 0.2 mm 2 mps 749 mmHg 94%
    03:00 -3°C° 0.2 mm 2 mps 749 mmHg 94%
    04:00 -3°C° 0.2 mm 2 mps 749 mmHg 92%
    05:00 -4°C° 0.2 mm 2 mps 749 mmHg 89%
    06:00 -5°C° 0.2 mm 3 mps 749 mmHg 87%
    07:00 -5°C° 0.1 mm 3 mps 750 mmHg 84%
    08:00 -5°C° 0.1 mm 3 mps 750 mmHg 81%
    09:00 -5°C° 0.1 mm 3 mps 751 mmHg 78%
    10:00 -4°C° 0.1 mm 4 mps 751 mmHg 74%
    11:00 -4°C° 0.1 mm 4 mps 752 mmHg 71%
    12:00 -3°C° 0.1 mm 4 mps 752 mmHg 68%
    13:00 -3°C° 0 mm 4 mps 753 mmHg 69%
    14:00 -3°C° 0 mm 4 mps 753 mmHg 69%
    15:00 -2°C° 0 mm 3 mps 753 mmHg 70%
    16:00 -4°C° 0 mm 3 mps 754 mmHg 73%
    17:00 -4°C° 0 mm 3 mps 754 mmHg 76%
    18:00 -5°C° 0 mm 3 mps 755 mmHg 78%
    19:00 -5°C° 0 mm 3 mps 755 mmHg 80%
    20:00 -5°C° 0 mm 3 mps 755 mmHg 83%
    21:00 -5°C° 0 mm 3 mps 756 mmHg 85%
    22:00 -5°C° 0 mm 3 mps 756 mmHg 84%
    23:00 -5°C° 0 mm 3 mps 756 mmHg 84%
    Show more